Regional Weather Roundup
Issued by NWS Glasgow, MT

Home | Current Version | Previous Version | Text Only | Print | Product List | Glossary On
Versions: 1 2 3 4 5 6 7 8 9 10 11 12 13 14 15 16 17 18 19 20 21 22 23 24 25 26 27 28 29 30 31 32 33 34 35 36 37 38 39 40 41 42 43 44 45 46 47 48 49 50
000
ASUS45 KGGW 050715
RWRGGW
HOURLY REGIONAL WEATHER ROUNDUP FOR NORTHEAST MONTANA
NATIONAL WEATHER SERVICE GLASGOW MONTANA
100 AM MDT THU MAY 05 2016

NOTE: "FAIR" INDICATES FEW OR NO CLOUDS BELOW 12,000 FEET WITH NO
SIGNIFICANT WEATHER AND/OR OBSTRUCTIONS TO VISISBILITY.

NORTHEAST MONTANA


CITY           SKY/WX    TMP DP  RH WIND       PRES   REMARKS
GLASGOW        CLOUDY    60  40  47 E12       29.82S
PLENTYWOOD       N/A     61  37  41 E3          N/A
WOLF POINT     CLEAR     52  43  71 CALM      29.84R
JORDAN           N/A     51  45  79 E5        29.85S
WINNETT          N/A     56  38  50 SW2         N/A
SIDNEY         CLEAR     55  41  58 SW8       29.88R
GLENDIVE       CLEAR     61  45  55 S13       29.92F
SCOBEY           N/A     50  33  52 CALM      29.85
OPHEIM           N/A     66  32  28 CALM      29.59F

FORT PECK REPORTS


CITY           SKY/WX    TMP DP  RH WIND       PRES   REMARKS
FORT PECK        N/A     63  44  50 SE9         N/A
THE PINES        N/A     64  42  44 S3          N/A

SOUTHEAST MONTANA


CITY           SKY/WX    TMP DP  RH WIND       PRES   REMARKS
BILLINGS       PTCLDY    62  41  46 SW15      29.91S
MILES CITY     CLOUDY    62  43  49 SE13      29.88F
BAKER          CLEAR     60  40  47 S14       29.94S
LIVINGSTON     CLOUDY    50  34  54 NW7       29.97S

CENTRAL MONTANA


CITY           SKY/WX    TMP DP  RH WIND       PRES   REMARKS
HAVRE          PTCLDY    50  43  77 W8        29.83R
LEWISTOWN      PTCLDY    56  34  43 SE3       29.93R
GREAT FALLS    CLOUDY    54  41  61 W5        29.90R
CUT BANK       CLOUDY    53  40  61 W7        29.88F
HELENA         CLOUDY    58  35  42 CALM      29.92R
BUTTE          CLOUDY    51  34  52 CALM      30.00S
BOZEMAN        CLOUDY    53  35  50 SE6       29.97R

WESTERN MONTANA


CITY           SKY/WX    TMP DP  RH WIND       PRES   REMARKS
MISSOULA       MOCLDY    55  40  56 E3        29.89R
KALISPELL      NOT AVBL

NORTH DAKOTA


CITY           SKY/WX    TMP DP  RH WIND       PRES   REMARKS
WILLISTON      CLEAR     63  40  42 S6        29.86S
DICKINSON      CLEAR     55  41  59 S13       29.92F
MINOT          CLEAR     68  42  38 SW12      29.85F
BISMARCK       CLEAR     63  45  51 SW10      29.94F

SOUTHERN SASKATCHEWAN


CITY           SKY/WX    TMP DP  RH WIND       PRES   REMARKS
REGINA         CLEAR     54  34  47 SW6       29.78S
ESTEVAN        CLEAR     55  41  58 SW8       29.82S
SWIFT CURRENT  CLEAR     59  37  44 S14       29.79S




USA.gov is the U.S. government's official web portal to all federal, state and local government web resources and services.